Location: La Oliva
(42.2466°N, 2.9955°E)
Time: 11:00:30
(UTC+00:00)

ARIANE 5 R/B - Pass Details

Date: 22 April 2021
Orbit: 620 x 656 km, 98.1° (Epoch: 06 May)

Event Time Altitude Azimuth Distance (km) Brightness Sun altitude
Exits shadow 20:04:04 18° 82° (E) 1,574 4.2 -15.3°
Maximum altitude 20:05:03 19° 65° (ENE) 1,513 4.3 -15.4°
Drops below altitude 10° 20:08:07 10° 20° (NNE) 2,016 5.4 -15.9°
Sets 20:10:49 0° 3° (N) 2,923 6.5 -16.3°
